TimeEST,TemperatureF,Dew PointF,Humidity,Sea Level PressureIn,VisibilityMPH,Wind Direction,Wind SpeedMPH,Gust SpeedMPH,PrecipitationIn,Events,Conditions,WindDirDegrees,DateUTC
12:15 AM,42.8,37.4,81,30.20,10.0,North,12.7,18.4,N/A,,Overcast,360,2013-01-07 05:15:00
1:15 AM,42.8,37.4,81,30.22,10.0,North,8.1,-,N/A,,Overcast,350,2013-01-07 06:15:00
1:35 AM,42.8,37.4,81,30.22,10.0,Calm,Calm,-,N/A,,Overcast,0,2013-01-07 06:35:00
1:55 AM,42.8,37.4,81,30.22,10.0,Calm,Calm,-,N/A,,Mostly Cloudy,0,2013-01-07 06:55:00
2:15 AM,39.2,35.6,87,30.22,10.0,NNW,5.8,-,N/A,,Scattered Clouds,340,2013-01-07 07:15:00
2:35 AM,37.4,35.6,93,30.22,10.0,Calm,Calm,-,N/A,,Clear,0,2013-01-07 07:35:00
2:55 AM,37.4,35.6,93,30.22,10.0,Calm,Calm,-,N/A,,Clear,0,2013-01-07 07:55:00
3:15 AM,35.6,35.6,100,30.23,10.0,Calm,Calm,-,N/A,,Clear,0,2013-01-07 08:15:00
3:35 AM,35.6,33.8,93,30.24,10.0,Calm,Calm,-,N/A,,Clear,0,2013-01-07 08:35:00
3:55 AM,33.8,33.8,100,30.23,10.0,Calm,Calm,-,N/A,,Clear,0,2013-01-07 08:55:00
4:15 AM,33.8,33.8,100,30.24,10.0,Calm,Calm,-,N/A,,Clear,0,2013-01-07 09:15:00
4:35 AM,33.8,33.8,100,30.25,10.0,Calm,Calm,-,N/A,,Clear,0,2013-01-07 09:35:00
4:55 AM,33.8,33.8,100,30.25,10.0,Calm,Calm,-,N/A,,Clear,0,2013-01-07 09:55:00
5:15 AM,33.8,33.8,100,30.27,10.0,NW,5.8,-,N/A,,Clear,310,2013-01-07 10:15:00
5:35 AM,32.0,32.0,100,30.26,10.0,North,4.6,-,N/A,,Clear,350,2013-01-07 10:35:00
5:55 AM,32.0,32.0,100,30.27,10.0,North,3.5,-,N/A,,Clear,350,2013-01-07 10:55:00
6:15 AM,32.0,32.0,100,30.29,10.0,Calm,Calm,-,N/A,,Clear,0,2013-01-07 11:15:00
6:35 AM,32.0,32.0,100,30.30,10.0,Calm,Calm,-,N/A,,Clear,0,2013-01-07 11:35:00
6:55 AM,32.0,32.0,100,30.31,10.0,NNW,4.6,-,N/A,,Clear,330,2013-01-07 11:55:00
7:15 AM,32.0,32.0,100,30.33,10.0,Calm,Calm,-,N/A,,Clear,0,2013-01-07 12:15:00
7:35 AM,32.0,32.0,100,30.34,10.0,NNW,6.9,-,N/A,,Clear,330,2013-01-07 12:35:00
7:55 AM,33.8,32.0,93,30.35,10.0,North,10.4,-,N/A,,Clear,350,2013-01-07 12:55:00
8:15 AM,35.6,32.0,87,30.36,10.0,North,12.7,17.3,N/A,,Clear,10,2013-01-07 13:15:00
8:35 AM,37.4,32.0,81,30.36,10.0,North,10.4,-,N/A,,Clear,10,2013-01-07 13:35:00
8:55 AM,37.4,33.8,87,30.37,10.0,North,10.4,17.3,N/A,,Clear,10,2013-01-07 13:55:00
9:15 AM,39.2,33.8,81,30.38,10.0,NNE,15.0,24.2,N/A,,Clear,20,2013-01-07 14:15:00
9:35 AM,41.0,33.8,76,30.39,10.0,NNE,18.4,27.6,N/A,,Clear,20,2013-01-07 14:35:00
9:55 AM,42.8,33.8,70,30.40,10.0,NNE,23.0,34.5,N/A,,Clear,30,2013-01-07 14:55:00
10:15 AM,44.6,33.8,66,30.41,10.0,North,17.3,21.9,N/A,,Clear,10,2013-01-07 15:15:00
10:35 AM,46.4,33.8,62,30.42,10.0,NNE,16.1,20.7,N/A,,Clear,20,2013-01-07 15:35:00
10:55 AM,46.4,33.8,62,30.41,10.0,NNE,11.5,23.0,N/A,,Clear,30,2013-01-07 15:55:00
11:15 AM,48.2,32.0,54,30.41,10.0,North,17.3,24.2,N/A,,Clear,10,2013-01-07 16:15:00
11:35 AM,48.2,32.0,54,30.41,10.0,North,11.5,26.5,N/A,,Clear,360,2013-01-07 16:35:00
11:55 AM,50.0,32.0,50,30.40,10.0,North,8.1,23.0,N/A,,Clear,350,2013-01-07 16:55:00
12:15 PM,51.8,32.0,47,30.39,10.0,NE,13.8,19.6,N/A,,Clear,40,2013-01-07 17:15:00
12:35 PM,53.6,32.0,44,30.38,10.0,NE,13.8,25.3,N/A,,Clear,40,2013-01-07 17:35:00
12:55 PM,53.6,30.2,41,30.37,10.0,SE,6.9,19.6,N/A,,Clear,140,2013-01-07 17:55:00
1:15 PM,53.6,30.2,41,30.37,10.0,ESE,4.6,27.6,N/A,,Clear,110,2013-01-07 18:15:00
1:35 PM,53.6,30.2,41,30.37,10.0,NNW,6.9,17.3,N/A,,Clear,330,2013-01-07 18:35:00
1:55 PM,53.6,30.2,41,30.37,10.0,North,5.8,17.3,N/A,,Clear,350,2013-01-07 18:55:00
2:15 PM,53.6,30.2,41,30.37,10.0,East,15.0,21.9,N/A,,Clear,80,2013-01-07 19:15:00
2:35 PM,53.6,30.2,41,30.37,10.0,NE,11.5,20.7,N/A,,Clear,50,2013-01-07 19:35:00
2:55 PM,53.6,30.2,41,30.37,10.0,ENE,12.7,19.6,N/A,,Clear,60,2013-01-07 19:55:00
3:15 PM,55.4,30.2,38,30.37,10.0,SE,4.6,18.4,N/A,,Clear,130,2013-01-07 20:15:00
3:35 PM,55.4,28.4,36,30.37,10.0,ESE,6.9,24.2,N/A,,Clear,110,2013-01-07 20:35:00
3:55 PM,53.6,30.2,41,30.37,10.0,East,11.5,18.4,N/A,,Clear,80,2013-01-07 20:55:00
4:15 PM,53.6,30.2,41,30.37,10.0,ENE,11.5,17.3,N/A,,Clear,70,2013-01-07 21:15:00
4:35 PM,51.8,30.2,44,30.38,10.0,East,12.7,-,N/A,,Clear,80,2013-01-07 21:35:00
4:55 PM,51.8,30.2,44,30.38,10.0,ENE,10.4,-,N/A,,Clear,70,2013-01-07 21:55:00
5:15 PM,48.2,32.0,54,30.39,10.0,East,4.6,-,N/A,,Clear,90,2013-01-07 22:15:00
5:35 PM,46.4,32.0,57,30.39,10.0,Calm,Calm,-,N/A,,Clear,0,2013-01-07 22:35:00
5:55 PM,44.6,32.0,61,30.40,10.0,Calm,Calm,-,N/A,,Clear,0,2013-01-07 22:55:00
6:15 PM,41.0,33.8,76,30.40,10.0,Calm,Calm,-,N/A,,Clear,0,2013-01-07 23:15:00
6:35 PM,42.8,32.0,66,30.41,10.0,Calm,Calm,-,N/A,,Clear,0,2013-01-07 23:35:00
7:15 PM,39.2,33.8,81,30.40,10.0,Calm,Calm,-,N/A,,Clear,0,2013-01-08 00:15:00
7:35 PM,39.2,33.8,81,30.41,10.0,Calm,Calm,-,N/A,,Clear,0,2013-01-08 00:35:00
7:55 PM,37.4,33.8,87,30.41,10.0,Calm,Calm,-,N/A,,Clear,0,2013-01-08 00:55:00
8:15 PM,37.4,33.8,87,30.41,10.0,Calm,Calm,-,N/A,,Clear,0,2013-01-08 01:15:00
8:35 PM,37.4,33.8,87,30.42,10.0,Calm,Calm,-,N/A,,Clear,0,2013-01-08 01:35:00
8:55 PM,37.4,33.8,87,30.42,10.0,Calm,Calm,-,N/A,,Clear,0,2013-01-08 01:55:00
9:15 PM,37.4,33.8,87,30.42,10.0,Calm,Calm,-,N/A,,Clear,0,2013-01-08 02:15:00
9:35 PM,35.6,33.8,93,30.42,10.0,Calm,Calm,-,N/A,,Clear,0,2013-01-08 02:35:00
9:55 PM,35.6,33.8,93,30.41,10.0,Calm,Calm,-,N/A,,Clear,0,2013-01-08 02:55:00
10:15 PM,35.6,33.8,93,30.41,10.0,Calm,Calm,-,N/A,,Clear,0,2013-01-08 03:15:00
10:35 PM,35.6,33.8,93,30.41,10.0,Calm,Calm,-,N/A,,Clear,0,2013-01-08 03:35:00
10:55 PM,35.6,33.8,93,30.41,10.0,Calm,Calm,-,N/A,,Clear,0,2013-01-08 03:55:00
11:15 PM,33.8,32.0,93,30.41,10.0,Calm,Calm,-,N/A,,Clear,0,2013-01-08 04:15:00
11:35 PM,33.8,32.0,93,30.41,10.0,Calm,Calm,-,N/A,,Clear,0,2013-01-08 04:35:00
11:55 PM,33.8,32.0,93,30.41,10.0,Calm,Calm,-,N/A,,Clear,0,2013-01-08 04:55:00